#timestamp,LO_Frequency,Hit,StdDev 
1505192415.4,286046998.4,N,1.0
1505192435.3,286046998.9,N,0.9
1505192455.1,286046998.8,N,0.9
1505192475.8,286046999.0,N,0.9
1505192495.7,286042391.1,Y,0.0
1505192515.5,286046998.7,P,0.1
1505192535.4,286046998.4,P,0.2
1505192555.2,286046998.3,P,0.2
1505192575.0,286046998.1,Y,0.0
1505192576.0,286046998.1,P,0.2
1505192595.8,286047000.5,N,1.0
1505192615.6,286047000.3,N,1.1
1505192635.5,286047000.6,N,1.1
1505192655.3,286046999.8,N,1.0
1505192675.2,286046999.8,N,0.9
1505192695.9,286047000.4,N,0.9
1505192715.7,286047000.0,N,0.8
1505192735.6,286047000.5,N,0.8
1505192755.4,286047002.8,Y,0.0
1505192775.3,286047000.1,P,0.1
1505192795.1,286047001.0,P,0.5
1505192796.0,286047001.0,N,0.5
1505192815.8,286047000.9,N,0.5
1505192835.7,286047000.7,N,0.5
1505192855.5,286047000.8,N,0.4
1505192875.3,286047000.6,N,0.4
1505192895.2,286047000.1,N,0.4
1505192915.0,286047002.3,Y,0.0
1505192915.9,286047002.3,P,0.9
1505192935.8,286047002.4,N,0.8
1505192955.6,286047002.5,N,0.8
1505192975.5,286047002.6,Y,0.0
1505192995.3,286047001.2,P,0.4
1505193015.1,286047001.2,P,0.3
1505193035.9,286047000.8,N,0.4
1505193055.7,286047000.6,N,0.5
1505193075.6,286046998.2,Y,0.0
1505193095.4,286046997.1,P,2.0
1505193115.2,286046996.7,N,2.0
1505193135.1,286046998.4,N,1.7
1505193136.0,286046998.4,N,1.6
1505193155.8,286046998.2,N,1.4
1505193175.7,286046999.3,N,1.4
1505193195.5,286046999.2,N,1.3
1505193215.3,286046997.0,N,1.3
1505193235.2,286046996.8,N,1.3
1505193255.0,286046999.1,N,1.3
1505193255.9,286046999.1,N,1.3
1505193275.8,286046998.6,N,1.2
1505193295.6,286047000.7,N,1.3
1505193315.4,286046999.1,N,1.3
1505193335.3,286046998.6,N,1.2
1505193355.1,286047001.2,N,1.3
1505193375.9,286046998.2,N,1.3
1505193395.7,286047000.8,N,1.4
1505193415.5,286047001.1,N,1.4
1505193435.4,286047000.4,N,1.4
1505193455.2,286047001.0,N,1.4
1505193475.1,286047001.0,N,1.5
1505193476.0,286047001.0,N,1.5
1505193495.8,286047000.1,N,1.5
1505193515.6,286047002.3,N,1.5
1505193535.5,286047001.6,N,1.6
1505193555.3,286047002.6,N,1.6
1505193575.2,286047000.1,N,1.6
1505193595.9,286047002.8,N,1.7
1505193615.7,286046999.8,N,1.7
1505193635.6,286047002.4,N,1.7
1505193655.4,286047001.5,N,1.6
1505193675.3,286047002.7,N,1.6
1505193695.1,286047002.3,N,1.6
1505193715.8,286047002.5,N,1.6
1505193735.7,286047002.5,N,1.7
1505193755.5,286047001.3,N,1.7
1505193775.4,286047002.0,N,1.5
1505193795.2,286047004.4,N,1.5
1505193815.0,286047001.5,N,1.4
1505193815.9,286047011.9,Y,0.0
1505193835.8,286047002.6,P,0.7
1505193855.6,286047001.6,N,0.6
1505193875.5,286047002.5,P,0.6
1505193895.3,286047002.2,Y,0.0
1505193915.1,286046999.8,P,1.1
1505193935.9,286047000.3,N,0.9
1505193955.7,286047002.8,P,1.2
1505193975.6,286047002.7,N,1.2
1505193995.4,286047002.5,N,1.2
1505194015.3,286046999.9,N,1.3
1505194035.1,286047002.8,N,1.3
1505194036.0,286047002.8,N,1.3
1505194055.8,286046999.9,N,1.3
1505194075.7,286047002.8,N,1.3
1505194095.5,286046999.9,N,1.3
1505194115.4,286047000.5,N,1.3
1505194135.2,286047000.2,N,1.3
1505194155.0,286047000.0,N,1.3
1505194155.9,286047000.0,N,1.3
1505194175.8,286047000.2,N,1.3
1505194195.6,286047000.2,N,1.3
1505194215.5,286046999.9,N,1.3
1505194235.3,286047000.0,N,1.2
1505194255.1,286047000.4,N,1.2
1505194275.9,286046998.1,N,1.3
1505194295.7,286047002.5,N,1.3
1505194315.6,286047002.2,N,1.3
1505194335.4,286047002.2,N,1.3
1505194355.2,286047002.4,N,1.3
1505194375.1,286047002.1,N,1.3
1505194376.0,286047002.1,N,1.3
1505194395.8,286047002.8,N,1.3
1505194415.7,286047002.2,N,1.3
1505194435.5,286047002.1,N,1.3
1505194455.3,286047002.0,N,1.3
1505194475.2,286047001.9,N,1.3
1505194495.0,286047001.4,N,1.3
1505194495.9,286047001.4,N,1.2
1505194515.8,286047002.0,N,1.2
1505194535.6,286047001.3,N,1.2
1505194555.4,286047001.7,N,1.2
1505194575.3,286047001.8,N,1.1
1505194595.1,286047001.6,N,1.1
1505194615.9,286047002.4,N,1.1
1505194635.7,286047002.0,N,1.1
1505194655.5,286047001.4,N,1.1
1505194675.4,286047003.9,Y,0.0
1505194695.2,286046999.7,P,0.8
1505194715.1,286047002.5,N,1.1
1505194716.0,286047002.5,N,1.1
1505194735.8,286047001.8,N,1.0
1505194755.6,286047002.0,N,1.0
1505194775.5,286047002.3,N,0.9
1505194795.3,286047002.0,N,0.9
1505194815.2,286047002.6,N,0.9
1505194835.0,286046999.7,N,1.0
1505194835.9,286046999.7,N,1.1
1505194855.8,286047002.4,N,1.1
1505194875.6,286047000.1,N,1.1
1505194895.4,286047002.2,N,1.1
1505194915.3,286047002.0,N,1.1
1505194935.1,286047001.8,N,1.1
1505194955.9,286047004.2,Y,0.0
1505194975.7,286047000.4,P,0.6
1505194995.5,286047002.4,P,0.8
1505195015.4,286047002.8,P,0.9
1505195035.2,286046999.8,N,1.1
1505195055.1,286047000.7,N,1.1
1505195056.0,286047000.7,N,1.0
1505195075.8,286047000.6,N,1.0
1505195095.6,286047001.2,N,0.9
1505195115.5,286047000.4,N,0.9
1505195135.3,286047000.7,N,0.9
1505195155.2,286047001.2,N,0.8
1505195175.0,286047000.9,N,0.8
1505195175.9,286047000.9,N,0.8
1505195195.7,286047000.2,N,0.8
1505195215.6,286047000.9,N,0.7
1505195235.4,286046998.1,N,1.0
1505195255.3,286047000.9,N,1.0
1505195275.1,286047001.1,N,0.9
1505195295.8,286046998.8,N,1.0
1505195315.7,286046998.2,N,1.1
1505195335.5,286047000.6,N,1.1
1505195355.4,286047000.7,N,1.1
1505195375.2,286046998.6,N,1.1
1505195395.0,286046998.6,N,1.2
1505195395.9,286046998.6,N,1.2
1505195415.8,286046998.6,N,1.2
1505195435.6,286047000.8,N,1.2
1505195455.5,286046998.1,N,1.2
1505195475.3,286047000.9,N,1.2
1505195495.3,286047000.7,N,1.2
1505195515.1,286047000.8,N,1.2
1505195535.8,286047001.2,N,1.2
1505195555.7,286047000.4,N,1.1
1505195575.5,286047002.7,N,1.2
1505195595.4,286046999.8,N,1.2
1505195615.2,286047002.3,N,1.2
1505195635.0,286047011.9,Y,0.0
1505195635.9,286047002.5,P,1.1
1505195655.8,286047002.4,N,1.0
1505195675.6,286047002.3,N,0.9
1505195695.5,286047000.2,N,1.1
1505195715.3,286047000.6,N,1.0
1505195735.1,286047002.8,N,1.1
1505195755.9,286047001.5,N,1.0
1505195775.7,286047002.5,N,1.0
1505195795.6,286046999.8,N,1.1
1505195815.4,286047000.1,N,1.1
1505195835.2,286047002.6,N,1.1
1505195855.1,286047000.6,N,1.1
1505195856.0,286047000.6,N,1.1
1505195875.8,286047000.7,N,1.1
1505195895.7,286047000.0,N,1.1
1505195915.5,286046999.9,N,1.1
1505195935.3,286047000.5,N,1.1
1505195955.2,286047002.8,N,1.1
1505195975.0,286047000.5,N,1.1
1505195975.9,286047000.5,N,1.1
1505195995.8,286047002.3,N,1.1
